TimeEST,TemperatureF,Dew PointF,Humidity,Sea Level PressureIn,VisibilityMPH,Wind Direction,Wind SpeedMPH,Gust SpeedMPH,PrecipitationIn,Events,Conditions,WindDirDegrees,DateUTC
12:15 AM,39.7,36.7,89,30.04,4.0,ENE,10.4,-,N/A,,Overcast,70,2012-12-09 05:15:00
12:35 AM,39.7,36.5,88,30.04,5.0,ENE,6.9,-,N/A,,Overcast,70,2012-12-09 05:35:00
12:55 AM,39.7,36.5,88,30.05,7.0,East,8.1,-,N/A,,Overcast,80,2012-12-09 05:55:00
1:15 AM,39.7,36.1,87,30.04,7.0,East,8.1,-,N/A,,Overcast,80,2012-12-09 06:15:00
1:35 AM,39.7,36.0,86,30.04,7.0,East,8.1,-,N/A,,Overcast,80,2012-12-09 06:35:00
1:55 AM,39.7,36.1,87,30.04,5.0,East,8.1,-,N/A,,Overcast,90,2012-12-09 06:55:00
2:15 AM,40.1,36.3,86,30.04,5.0,East,9.2,-,N/A,,Overcast,90,2012-12-09 07:15:00
2:35 AM,40.1,36.5,87,30.03,4.0,ENE,6.9,-,N/A,,Overcast,70,2012-12-09 07:35:00
2:55 AM,40.1,36.7,88,30.03,3.0,East,8.1,-,N/A,,Overcast,80,2012-12-09 07:55:00
3:15 AM,40.1,36.9,88,30.03,2.5,East,9.2,-,N/A,,Overcast,80,2012-12-09 08:15:00
3:55 AM,40.3,37.0,88,30.02,3.0,East,11.5,-,N/A,Rain,Light Rain,100,2012-12-09 08:55:00
4:15 AM,40.3,37.0,88,30.01,3.0,East,6.9,-,N/A,,Drizzle,80,2012-12-09 09:15:00
4:35 AM,40.1,36.5,87,30.00,3.0,East,10.4,-,0.01,,Light Drizzle,80,2012-12-09 09:35:00
4:55 AM,39.7,36.5,88,30.00,2.5,East,9.2,-,0.01,,Light Drizzle,80,2012-12-09 09:55:00
5:15 AM,40.1,36.7,88,30.00,2.5,East,9.2,-,N/A,,Overcast,80,2012-12-09 10:15:00
5:35 AM,40.1,36.9,88,29.99,3.0,ENE,8.1,-,N/A,,Overcast,70,2012-12-09 10:35:00
5:55 AM,40.1,36.9,88,29.96,2.5,East,17.3,20.7,N/A,,Overcast,90,2012-12-09 10:55:00
6:15 AM,40.1,36.9,88,29.96,2.0,East,15.0,19.6,N/A,Rain,Light Rain,90,2012-12-09 11:15:00
6:35 AM,40.3,37.4,89,29.96,3.0,East,13.8,18.4,N/A,,Overcast,90,2012-12-09 11:35:00
6:55 AM,40.5,37.4,89,29.96,3.0,East,11.5,-,N/A,,Overcast,80,2012-12-09 11:55:00
7:15 AM,40.6,37.4,88,29.95,4.0,East,9.2,16.1,N/A,,Overcast,80,2012-12-09 12:15:00
7:35 AM,41.0,37.4,87,29.94,4.0,East,11.5,16.1,N/A,,Overcast,90,2012-12-09 12:35:00
7:55 AM,41.0,37.6,88,29.95,4.0,East,9.2,-,N/A,,Overcast,90,2012-12-09 12:55:00
8:15 AM,41.2,37.8,88,29.94,5.0,East,8.1,-,N/A,,Overcast,100,2012-12-09 13:15:00
8:35 AM,41.4,37.8,87,29.95,5.0,ENE,5.8,-,N/A,Rain,Light Rain,70,2012-12-09 13:35:00
8:55 AM,41.5,37.9,87,29.94,4.0,East,6.9,-,N/A,,Light Drizzle,80,2012-12-09 13:55:00
9:15 AM,41.5,38.3,88,29.94,2.0,ENE,4.6,-,0.01,Rain,Rain,60,2012-12-09 14:15:00
9:35 AM,41.5,38.3,88,29.93,1.2,East,8.1,-,0.10,Rain,Rain,80,2012-12-09 14:35:00
9:55 AM,41.9,38.7,88,29.91,1.5,East,12.7,-,0.18,Rain,Rain,90,2012-12-09 14:55:00
10:15 AM,41.9,38.8,89,29.91,2.0,ESE,11.5,-,0.05,Rain,Light Rain,110,2012-12-09 15:15:00
10:35 AM,42.1,39.2,90,29.90,2.5,ESE,13.8,-,0.10,Rain,Light Rain,110,2012-12-09 15:35:00
10:55 AM,42.8,39.6,88,29.90,3.0,ESE,10.4,-,0.10,Rain,Light Rain,120,2012-12-09 15:55:00
11:15 AM,43.0,40.1,90,29.89,3.0,ESE,11.5,-,N/A,Rain,Light Rain,120,2012-12-09 16:15:00
11:35 AM,43.2,40.1,89,29.89,0.8,SE,13.8,-,0.18,Rain,Light Rain,130,2012-12-09 16:35:00
11:55 AM,43.5,40.5,89,29.87,2.5,SE,6.9,-,0.26,Rain,Light Rain,130,2012-12-09 16:55:00
12:15 PM,43.9,41.0,90,29.86,3.0,SE,6.9,-,N/A,,Overcast,130,2012-12-09 17:15:00
12:35 PM,44.6,41.9,90,29.83,2.5,SE,9.2,-,N/A,,Overcast,130,2012-12-09 17:35:00
1:15 PM,45.5,42.8,90,29.81,1.0,SE,10.4,-,N/A,,Light Drizzle,140,2012-12-09 18:15:00
1:35 PM,46.6,43.7,90,29.79,0.5,SSE,6.9,-,N/A,Fog,Fog,150,2012-12-09 18:35:00
1:55 PM,47.7,45.0,90,29.79,1.8,South,9.2,-,N/A,,Overcast,170,2012-12-09 18:55:00
2:15 PM,48.4,45.7,90,29.78,2.0,South,6.9,-,N/A,,Overcast,180,2012-12-09 19:15:00
2:35 PM,48.6,45.9,90,29.78,1.2,SSE,5.8,-,N/A,,Overcast,160,2012-12-09 19:35:00
2:55 PM,49.1,46.4,90,29.76,0.8,South,8.1,-,N/A,,Overcast,170,2012-12-09 19:55:00
3:15 PM,49.5,46.8,90,29.76,0.8,South,6.9,-,N/A,,Overcast,180,2012-12-09 20:15:00
3:35 PM,50.0,47.3,90,29.77,0.8,SSW,4.6,-,N/A,,Overcast,200,2012-12-09 20:35:00
3:55 PM,50.5,47.8,90,29.77,0.8,South,5.8,-,N/A,,Overcast,190,2012-12-09 20:55:00
4:15 PM,51.1,48.4,90,29.77,0.5,South,5.8,-,N/A,Fog,Fog,180,2012-12-09 21:15:00
4:35 PM,51.3,48.6,90,29.77,0.5,South,6.9,-,N/A,Fog,Fog,180,2012-12-09 21:35:00
4:55 PM,51.4,48.7,90,29.77,0.5,South,6.9,-,N/A,,Drizzle,190,2012-12-09 21:55:00
5:15 PM,52.0,49.3,90,29.74,0.2,South,8.1,-,0.01,,Light Drizzle,170,2012-12-09 22:15:00
5:35 PM,52.7,50.0,91,29.75,0.8,SSW,5.8,-,0.01,,Overcast,210,2012-12-09 22:35:00
5:55 PM,52.7,50.0,91,29.74,0.5,SSW,3.5,-,0.01,Fog,Fog,200,2012-12-09 22:55:00
6:15 PM,52.9,50.2,91,29.74,0.5,SW,4.6,-,N/A,Fog,Fog,230,2012-12-09 23:15:00
6:35 PM,52.9,50.4,91,29.74,0.8,WSW,3.5,-,N/A,,Overcast,250,2012-12-09 23:35:00
6:55 PM,52.9,50.4,91,29.72,0.5,Calm,Calm,-,N/A,Fog,Fog,0,2012-12-09 23:55:00
7:15 PM,52.7,50.0,91,29.73,0.5,West,4.6,-,N/A,Fog,Fog,280,2012-12-10 00:15:00
7:35 PM,51.8,49.3,91,29.73,0.8,WNW,4.6,-,N/A,Rain,Rain,300,2012-12-10 00:35:00
7:55 PM,51.3,48.9,92,29.72,1.2,NW,4.6,-,0.01,Rain,Light Rain,310,2012-12-10 00:55:00
8:15 PM,50.9,48.4,91,29.70,2.0,Calm,Calm,-,N/A,,Drizzle,0,2012-12-10 01:15:00
8:35 PM,50.9,48.2,90,29.73,1.8,WNW,10.4,-,0.07,Rain,Heavy Rain,290,2012-12-10 01:35:00
8:55 PM,50.2,47.7,91,29.71,5.0,WNW,6.9,-,0.12,Rain,Light Rain,300,2012-12-10 01:55:00
9:15 PM,50.0,47.3,90,29.71,7.0,WNW,8.1,-,N/A,,Overcast,300,2012-12-10 02:15:00
9:35 PM,49.5,46.9,91,29.70,7.0,NW,6.9,-,N/A,Rain,Light Rain,310,2012-12-10 02:35:00
9:55 PM,49.1,46.4,90,29.71,10.0,WNW,9.2,-,N/A,,Overcast,300,2012-12-10 02:55:00
10:15 PM,48.6,46.0,91,29.71,7.0,WNW,8.1,-,N/A,,Overcast,290,2012-12-10 03:15:00
10:35 PM,48.2,45.7,91,29.71,7.0,WNW,8.1,-,N/A,,Overcast,290,2012-12-10 03:35:00
10:55 PM,47.5,45.0,91,29.72,7.0,WNW,10.4,-,N/A,,Drizzle,300,2012-12-10 03:55:00
11:35 PM,46.2,43.5,90,29.73,4.0,WNW,11.5,16.1,N/A,,Overcast,300,2012-12-10 04:35:00
11:55 PM,44.8,42.1,90,29.74,1.0,WNW,12.7,19.6,N/A,,Overcast,290,2012-12-10 04:55:00